Year,Month,Day,Hour,Minute,Value (Times are PST for temperature in C)
2015,05,21,00,00,16.80
2015,05,21,00,01,16.80
2015,05,21,00,02,16.80
2015,05,21,00,03,16.80
2015,05,21,00,04,16.80
2015,05,21,00,05,16.80
2015,05,21,00,06,16.70
2015,05,21,00,07,16.70
2015,05,21,00,08,16.70
2015,05,21,00,09,16.70
2015,05,21,00,10,16.80
2015,05,21,00,11,16.70
2015,05,21,00,12,16.70
2015,05,21,00,13,16.70
2015,05,21,00,14,16.60
2015,05,21,00,15,16.50
2015,05,21,00,16,16.50
2015,05,21,00,17,16.50
2015,05,21,00,18,16.50
2015,05,21,00,19,16.50
2015,05,21,00,20,16.50
2015,05,21,00,21,16.50
2015,05,21,00,22,16.50
2015,05,21,00,23,16.50
2015,05,21,00,24,16.50
2015,05,21,00,25,16.40
2015,05,21,00,26,16.40
2015,05,21,00,27,16.30
2015,05,21,00,28,16.30
2015,05,21,00,29,16.20
2015,05,21,00,30,16.20
2015,05,21,00,31,16.10
2015,05,21,00,32,16.00
2015,05,21,00,33,15.90
2015,05,21,00,34,15.80
2015,05,21,00,35,15.80
2015,05,21,00,36,15.70
2015,05,21,00,37,15.70
2015,05,21,00,38,15.70
2015,05,21,00,39,15.60
2015,05,21,00,40,15.50
2015,05,21,00,41,15.30
2015,05,21,00,42,15.30
2015,05,21,00,43,15.20
2015,05,21,00,44,15.10
2015,05,21,00,45,15.10
2015,05,21,00,46,15.00
2015,05,21,00,47,15.00
2015,05,21,00,48,15.00
2015,05,21,00,49,15.00
2015,05,21,00,50,15.00
2015,05,21,00,51,15.00
2015,05,21,00,52,15.00
2015,05,21,00,53,14.90
2015,05,21,00,54,14.80
2015,05,21,00,55,14.70
2015,05,21,00,56,14.70
2015,05,21,00,57,14.60
2015,05,21,00,58,14.60
2015,05,21,00,59,14.60
2015,05,21,01,00,14.50
2015,05,21,01,01,14.50
2015,05,21,01,02,14.50
2015,05,21,01,03,14.50
2015,05,21,01,04,14.50
2015,05,21,01,05,14.50
2015,05,21,01,06,14.50
2015,05,21,01,07,14.40
2015,05,21,01,08,14.40
2015,05,21,01,09,14.50
2015,05,21,01,10,14.50
2015,05,21,01,11,14.50
2015,05,21,01,12,14.60
2015,05,21,01,13,14.60
2015,05,21,01,14,14.60
2015,05,21,01,15,14.70
2015,05,21,01,16,14.70
2015,05,21,01,17,14.70
2015,05,21,01,18,14.70
2015,05,21,01,19,14.80
2015,05,21,01,20,14.80
2015,05,21,01,21,14.80
2015,05,21,01,22,14.80
2015,05,21,01,23,14.80
2015,05,21,01,24,14.80
2015,05,21,01,25,14.80
2015,05,21,01,26,14.80
2015,05,21,01,27,14.80
2015,05,21,01,28,14.80
2015,05,21,01,29,14.80
2015,05,21,01,30,14.80
2015,05,21,01,31,14.80
2015,05,21,01,32,14.80
2015,05,21,01,33,14.80
2015,05,21,01,34,14.80
2015,05,21,01,35,14.80
2015,05,21,01,36,14.80
2015,05,21,01,37,14.80
2015,05,21,01,38,14.80
2015,05,21,01,39,14.80
2015,05,21,01,40,14.80
2015,05,21,01,41,14.80
2015,05,21,01,42,14.80
2015,05,21,01,43,14.80
2015,05,21,01,44,14.80
2015,05,21,01,45,14.80
2015,05,21,01,46,14.80
2015,05,21,01,47,14.80
2015,05,21,01,48,14.80
2015,05,21,01,49,14.80
2015,05,21,01,50,14.80
2015,05,21,01,51,14.70
2015,05,21,01,52,14.70
2015,05,21,01,53,14.70
2015,05,21,01,54,14.70
2015,05,21,01,55,14.70
2015,05,21,01,56,14.60
2015,05,21,01,57,14.60
2015,05,21,01,58,14.60
2015,05,21,01,59,14.50
2015,05,21,02,00,14.50
2015,05,21,02,01,14.50
2015,05,21,02,02,14.40
2015,05,21,02,03,14.40
2015,05,21,02,04,14.40
2015,05,21,02,05,14.30
2015,05,21,02,06,14.30
2015,05,21,02,07,14.30
2015,05,21,02,08,14.30
2015,05,21,02,09,14.20
2015,05,21,02,10,14.20
2015,05,21,02,11,14.20
2015,05,21,02,12,14.10
2015,05,21,02,13,14.10
2015,05,21,02,14,14.10
2015,05,21,02,15,14.00
2015,05,21,02,16,14.00
2015,05,21,02,17,14.00
2015,05,21,02,18,13.90
2015,05,21,02,19,13.90
2015,05,21,02,20,13.90
2015,05,21,02,21,13.90
2015,05,21,02,22,13.90
2015,05,21,02,23,13.90
2015,05,21,02,24,13.90
2015,05,21,02,25,14.00
2015,05,21,02,26,14.00
2015,05,21,02,27,14.00
2015,05,21,02,28,14.00
2015,05,21,02,29,14.00
2015,05,21,02,30,14.00
2015,05,21,02,31,14.00
2015,05,21,02,32,14.00
2015,05,21,02,33,14.00
2015,05,21,02,34,13.90
2015,05,21,02,35,13.90
2015,05,21,02,36,13.90
2015,05,21,02,37,13.90
2015,05,21,02,38,13.90
2015,05,21,02,39,13.90
2015,05,21,02,40,13.90
2015,05,21,02,41,13.90
2015,05,21,02,42,13.80
2015,05,21,02,43,13.80
2015,05,21,02,44,13.80
2015,05,21,02,45,13.80
2015,05,21,02,46,13.80
2015,05,21,02,47,13.80
2015,05,21,02,48,13.70
2015,05,21,02,49,13.70
2015,05,21,02,50,13.70
2015,05,21,02,51,13.70
2015,05,21,02,52,13.70
2015,05,21,02,53,13.70
2015,05,21,02,54,13.70
2015,05,21,02,55,13.70
2015,05,21,02,56,13.70
2015,05,21,02,57,13.70
2015,05,21,02,58,13.70
2015,05,21,02,59,13.70
2015,05,21,03,00,13.70
2015,05,21,03,01,13.70
2015,05,21,03,02,13.80
2015,05,21,03,03,13.80
2015,05,21,03,04,13.80
2015,05,21,03,05,13.80
2015,05,21,03,06,13.80
2015,05,21,03,07,13.80
2015,05,21,03,08,13.80
2015,05,21,03,09,13.80
2015,05,21,03,10,13.80
2015,05,21,03,11,13.90
2015,05,21,03,12,13.90
2015,05,21,03,13,13.90
2015,05,21,03,14,14.00
2015,05,21,03,15,14.00
2015,05,21,03,16,14.00
2015,05,21,03,17,14.10
2015,05,21,03,18,14.00
2015,05,21,03,19,14.00
2015,05,21,03,20,13.90
2015,05,21,03,21,13.90
2015,05,21,03,22,13.80
2015,05,21,03,23,13.80
2015,05,21,03,24,13.70
2015,05,21,03,25,13.70
2015,05,21,03,26,13.70
2015,05,21,03,27,13.60
2015,05,21,03,28,13.60
2015,05,21,03,29,13.60
2015,05,21,03,30,13.60
2015,05,21,03,31,13.50
2015,05,21,03,32,13.50
2015,05,21,03,33,13.50
2015,05,21,03,34,13.50
2015,05,21,03,35,13.50
2015,05,21,03,36,13.50
2015,05,21,03,37,13.50
2015,05,21,03,38,13.50
2015,05,21,03,39,13.50
2015,05,21,03,40,13.50
2015,05,21,03,41,13.50
2015,05,21,03,42,13.60
2015,05,21,03,43,13.60
2015,05,21,03,44,13.60
2015,05,21,03,45,13.70
2015,05,21,03,46,13.70
2015,05,21,03,47,13.70
2015,05,21,03,48,13.80
2015,05,21,03,49,13.80
2015,05,21,03,50,13.80
2015,05,21,03,51,13.80
2015,05,21,03,52,13.80
2015,05,21,03,53,13.90
2015,05,21,03,54,13.90
2015,05,21,03,55,13.90
2015,05,21,03,56,13.90
2015,05,21,03,57,13.90
2015,05,21,03,58,13.90
2015,05,21,03,59,13.90
2015,05,21,04,00,13.90
2015,05,21,04,01,13.90
2015,05,21,04,02,13.90
2015,05,21,04,03,13.90
2015,05,21,04,04,14.00
2015,05,21,04,05,14.00
2015,05,21,04,06,14.10
2015,05,21,04,07,14.10
2015,05,21,04,08,14.10
2015,05,21,04,09,14.20
2015,05,21,04,10,14.20
2015,05,21,04,11,14.20
2015,05,21,04,12,14.30
2015,05,21,04,13,14.30
2015,05,21,04,14,14.30
2015,05,21,04,15,14.30
2015,05,21,04,16,14.40
2015,05,21,04,17,14.40
2015,05,21,04,18,14.40
2015,05,21,04,19,14.40
2015,05,21,04,20,14.40
2015,05,21,04,21,14.40
2015,05,21,04,22,14.40
2015,05,21,04,23,14.40
2015,05,21,04,24,14.40
2015,05,21,04,25,14.40
2015,05,21,04,26,14.40
2015,05,21,04,27,14.50
2015,05,21,04,28,14.50
2015,05,21,04,29,14.50
2015,05,21,04,30,14.50
2015,05,21,04,31,14.50
2015,05,21,04,32,14.50
2015,05,21,04,33,14.60
2015,05,21,04,34,14.60
2015,05,21,04,35,14.60
2015,05,21,04,36,14.60
2015,05,21,04,37,14.60
2015,05,21,04,38,14.60
2015,05,21,04,39,14.60
2015,05,21,04,40,14.70
2015,05,21,04,41,14.70
2015,05,21,04,42,14.70
2015,05,21,04,43,14.70
2015,05,21,04,44,14.70
2015,05,21,04,45,14.70
2015,05,21,04,46,14.70
2015,05,21,04,47,14.70
2015,05,21,04,48,14.70
2015,05,21,04,49,14.70
2015,05,21,04,50,14.70
2015,05,21,04,51,14.70
2015,05,21,04,52,14.70
2015,05,21,04,53,14.60
2015,05,21,04,54,14.60
2015,05,21,04,55,14.60
2015,05,21,04,56,14.60
2015,05,21,04,57,14.60
2015,05,21,04,58,14.50
2015,05,21,04,59,14.50
2015,05,21,05,00,14.50
2015,05,21,05,01,14.40
2015,05,21,05,02,14.40
2015,05,21,05,03,14.40
2015,05,21,05,04,14.40
2015,05,21,05,05,14.40
2015,05,21,05,06,14.30
2015,05,21,05,07,14.30
2015,05,21,05,08,14.30
2015,05,21,05,09,14.30
2015,05,21,05,10,14.30
2015,05,21,05,11,14.30
2015,05,21,05,12,14.30
2015,05,21,05,13,14.30
2015,05,21,05,14,14.20
2015,05,21,05,15,14.20
2015,05,21,05,16,14.20
2015,05,21,05,17,14.20
2015,05,21,05,18,14.20
2015,05,21,05,19,14.20
2015,05,21,05,20,14.10
2015,05,21,05,21,14.10
2015,05,21,05,22,14.10
2015,05,21,05,23,14.10
2015,05,21,05,24,14.10
2015,05,21,05,25,14.10
2015,05,21,05,26,14.10
2015,05,21,05,27,14.10
2015,05,21,05,28,14.10
2015,05,21,05,29,14.10
2015,05,21,05,30,14.10
2015,05,21,05,31,14.10
2015,05,21,05,32,14.10
2015,05,21,05,33,14.10
2015,05,21,05,34,14.10
2015,05,21,05,35,14.10
2015,05,21,05,36,14.10
2015,05,21,05,37,14.10
2015,05,21,05,38,14.10
2015,05,21,05,39,14.10
2015,05,21,05,40,14.10
2015,05,21,05,41,14.10
2015,05,21,05,42,14.00
2015,05,21,05,43,14.00
2015,05,21,05,44,14.00
2015,05,21,05,45,14.00
2015,05,21,05,46,14.00
2015,05,21,05,47,14.00
2015,05,21,05,48,13.90
2015,05,21,05,49,14.00
2015,05,21,05,50,14.00
2015,05,21,05,51,13.90
2015,05,21,05,52,14.00
2015,05,21,05,53,14.00
2015,05,21,05,54,14.00
2015,05,21,05,55,14.10
2015,05,21,05,56,14.10
2015,05,21,05,57,14.10
2015,05,21,05,58,14.10
2015,05,21,05,59,14.10
2015,05,21,06,00,14.10
2015,05,21,06,01,14.10
2015,05,21,06,02,14.20
2015,05,21,06,03,14.20
2015,05,21,06,04,14.20
2015,05,21,06,05,14.20
2015,05,21,06,06,14.30
2015,05,21,06,07,14.30
2015,05,21,06,08,14.30
2015,05,21,06,09,14.30
2015,05,21,06,10,14.30
2015,05,21,06,11,14.30
2015,05,21,06,12,14.30
2015,05,21,06,13,14.30
2015,05,21,06,14,14.40
2015,05,21,06,15,14.40
2015,05,21,06,16,14.40
2015,05,21,06,17,14.40
2015,05,21,06,18,14.50
2015,05,21,06,19,14.50
2015,05,21,06,20,14.50
2015,05,21,06,21,14.60
2015,05,21,06,22,14.60
2015,05,21,06,23,14.60
2015,05,21,06,24,14.60
2015,05,21,06,25,14.70
2015,05,21,06,26,14.80
2015,05,21,06,27,14.80
2015,05,21,06,28,14.90
2015,05,21,06,29,14.90
2015,05,21,06,30,15.00
2015,05,21,06,31,15.00
2015,05,21,06,32,15.00
2015,05,21,06,33,15.00
2015,05,21,06,34,15.00
2015,05,21,06,35,15.00
2015,05,21,06,36,15.00
2015,05,21,06,37,15.00
2015,05,21,06,38,15.00
2015,05,21,06,39,15.00
2015,05,21,06,40,15.00
2015,05,21,06,41,15.00
2015,05,21,06,42,15.00
2015,05,21,06,43,15.00
2015,05,21,06,44,15.00
2015,05,21,06,45,15.00
2015,05,21,06,46,15.00
2015,05,21,06,47,15.00
2015,05,21,06,48,15.00
2015,05,21,06,49,15.00
2015,05,21,06,50,15.00
2015,05,21,06,51,15.00
2015,05,21,06,52,15.00
2015,05,21,06,53,15.00
2015,05,21,06,54,15.00
2015,05,21,06,55,15.00
2015,05,21,06,56,15.10
2015,05,21,06,57,15.20
2015,05,21,06,58,15.20
2015,05,21,06,59,15.20
2015,05,21,07,00,15.30
2015,05,21,07,01,15.30
2015,05,21,07,02,15.30
2015,05,21,07,03,15.40
2015,05,21,07,04,15.40
2015,05,21,07,05,15.40
2015,05,21,07,06,15.40
2015,05,21,07,07,15.50
2015,05,21,07,08,15.50
2015,05,21,07,09,15.60
2015,05,21,07,10,15.60
2015,05,21,07,11,15.60
2015,05,21,07,12,15.60
2015,05,21,07,13,15.70
2015,05,21,07,14,15.70
2015,05,21,07,15,15.70
2015,05,21,07,16,15.80
2015,05,21,07,17,15.80
2015,05,21,07,18,15.80
2015,05,21,07,19,15.80
2015,05,21,07,20,15.90
2015,05,21,07,21,15.90
2015,05,21,07,22,16.00
2015,05,21,07,23,16.00
2015,05,21,07,24,16.10
2015,05,21,07,25,16.10
2015,05,21,07,26,16.20
2015,05,21,07,27,16.20
2015,05,21,07,28,16.30
2015,05,21,07,29,16.30
2015,05,21,07,30,16.40
2015,05,21,07,31,16.40
2015,05,21,07,32,16.40
2015,05,21,07,33,16.40
2015,05,21,07,34,16.40
2015,05,21,07,35,16.50
2015,05,21,07,36,16.50
2015,05,21,07,37,16.60
2015,05,21,07,38,16.60
2015,05,21,07,39,16.60
2015,05,21,07,40,16.60
2015,05,21,07,41,16.60
2015,05,21,07,42,16.60
2015,05,21,07,43,16.60
2015,05,21,07,44,16.60
2015,05,21,07,45,16.60
2015,05,21,07,46,16.60
2015,05,21,07,47,16.70
2015,05,21,07,48,16.70
2015,05,21,07,49,16.70
2015,05,21,07,50,16.70
2015,05,21,07,51,16.70
2015,05,21,07,52,16.70
2015,05,21,07,53,16.70
2015,05,21,07,54,16.70
2015,05,21,07,55,16.70
2015,05,21,07,56,16.80
2015,05,21,07,57,16.80
2015,05,21,07,58,16.80
2015,05,21,07,59,16.80
2015,05,21,08,00,16.90
2015,05,21,08,01,16.90
2015,05,21,08,02,17.00
2015,05,21,08,03,17.00
2015,05,21,08,04,17.10
2015,05,21,08,05,17.10
2015,05,21,08,06,17.10
2015,05,21,08,07,17.10
2015,05,21,08,08,17.10
2015,05,21,08,09,17.20
2015,05,21,08,10,17.20
2015,05,21,08,11,17.20
2015,05,21,08,12,17.20
2015,05,21,08,13,17.20
2015,05,21,08,14,17.20
2015,05,21,08,15,17.20
2015,05,21,08,16,17.30
2015,05,21,08,17,17.30
2015,05,21,08,18,17.40
2015,05,21,08,19,17.40
2015,05,21,08,20,17.40
2015,05,21,08,21,17.50
2015,05,21,08,22,17.50
2015,05,21,08,23,17.50
2015,05,21,08,24,17.50
2015,05,21,08,25,17.60
2015,05,21,08,26,17.60
2015,05,21,08,27,17.60
2015,05,21,08,28,17.70
2015,05,21,08,29,17.70
2015,05,21,08,30,17.80
2015,05,21,08,31,17.80
2015,05,21,08,32,17.80
2015,05,21,08,33,17.80
2015,05,21,08,34,17.80
2015,05,21,08,35,17.80
2015,05,21,08,36,17.80
2015,05,21,08,37,17.80
2015,05,21,08,38,17.80
2015,05,21,08,39,17.80
2015,05,21,08,40,17.70
2015,05,21,08,41,17.70
2015,05,21,08,42,17.70
2015,05,21,08,43,17.70
2015,05,21,08,44,17.70
2015,05,21,08,45,17.80
2015,05,21,08,46,17.80
2015,05,21,08,47,17.80
2015,05,21,08,48,17.90
2015,05,21,08,49,17.90
2015,05,21,08,50,17.90
2015,05,21,08,51,17.90
2015,05,21,08,52,17.90
2015,05,21,08,53,17.90
2015,05,21,08,54,17.80
2015,05,21,08,55,17.80
2015,05,21,08,56,17.80
2015,05,21,08,57,17.70
2015,05,21,08,58,17.70
2015,05,21,08,59,17.70
2015,05,21,09,00,17.70
2015,05,21,09,01,17.70
2015,05,21,09,02,17.60
2015,05,21,09,03,17.60
2015,05,21,09,04,17.60
2015,05,21,09,05,17.60
2015,05,21,09,06,17.70
2015,05,21,09,07,17.70
2015,05,21,09,08,17.70
2015,05,21,09,09,17.80
2015,05,21,09,10,17.80
2015,05,21,09,11,17.80
2015,05,21,09,12,17.90
2015,05,21,09,13,17.90
2015,05,21,09,14,17.90
2015,05,21,09,15,17.90
2015,05,21,09,16,18.00
2015,05,21,09,17,18.10
2015,05,21,09,18,18.20
2015,05,21,09,19,18.30
2015,05,21,09,20,18.30
2015,05,21,09,21,18.40
2015,05,21,09,22,18.40
2015,05,21,09,23,18.50
2015,05,21,09,24,18.60
2015,05,21,09,25,18.60
2015,05,21,09,26,18.70
2015,05,21,09,27,18.70
2015,05,21,09,28,18.80
2015,05,21,09,29,18.80
2015,05,21,09,30,18.90
2015,05,21,09,31,18.90
2015,05,21,09,32,19.00
2015,05,21,09,33,19.00
2015,05,21,09,34,19.00
2015,05,21,09,35,19.00
2015,05,21,09,36,19.00
2015,05,21,09,37,19.00
2015,05,21,09,38,18.90
2015,05,21,09,39,18.90
2015,05,21,09,40,18.90
2015,05,21,09,41,18.90
2015,05,21,09,42,18.90
2015,05,21,09,43,18.90
2015,05,21,09,44,18.90
2015,05,21,09,45,19.00
2015,05,21,09,46,19.00
2015,05,21,09,47,19.10
2015,05,21,09,48,19.20
2015,05,21,09,49,19.20
2015,05,21,09,50,19.20
2015,05,21,09,51,19.20
2015,05,21,09,52,19.20
2015,05,21,09,53,19.10
2015,05,21,09,54,19.00
2015,05,21,09,55,18.90
2015,05,21,09,56,18.80
2015,05,21,09,57,18.70
2015,05,21,09,58,18.70
2015,05,21,09,59,18.70
2015,05,21,10,00,18.70
2015,05,21,10,01,18.70
2015,05,21,10,02,18.70
2015,05,21,10,03,18.70
2015,05,21,10,04,18.70
2015,05,21,10,05,18.70
2015,05,21,10,06,18.60
2015,05,21,10,07,18.60
2015,05,21,10,08,18.50
2015,05,21,10,09,18.40
2015,05,21,10,10,18.30
2015,05,21,10,11,18.30
2015,05,21,10,12,18.30
2015,05,21,10,13,18.30
2015,05,21,10,14,18.20
2015,05,21,10,15,18.20
2015,05,21,10,16,18.20
2015,05,21,10,17,18.10
2015,05,21,10,18,18.10
2015,05,21,10,19,18.10
2015,05,21,10,20,18.10
2015,05,21,10,21,18.10
2015,05,21,10,22,18.10
2015,05,21,10,23,18.20
2015,05,21,10,24,18.20
2015,05,21,10,25,18.20
2015,05,21,10,26,18.30
2015,05,21,10,27,18.30
2015,05,21,10,28,18.30
2015,05,21,10,29,18.30
2015,05,21,10,30,18.40
2015,05,21,10,31,18.40
2015,05,21,10,32,18.40
2015,05,21,10,33,18.40
2015,05,21,10,34,18.40
2015,05,21,10,35,18.40
2015,05,21,10,36,18.40
2015,05,21,10,37,18.40
2015,05,21,10,38,18.40
2015,05,21,10,39,18.50
2015,05,21,10,40,18.50
2015,05,21,10,41,18.60
2015,05,21,10,42,18.60
2015,05,21,10,43,18.60
2015,05,21,10,44,18.60
2015,05,21,10,45,18.60
2015,05,21,10,46,18.60
2015,05,21,10,47,18.60
2015,05,21,10,48,18.70
2015,05,21,10,49,18.70
2015,05,21,10,50,18.70
2015,05,21,10,51,18.80
2015,05,21,10,52,18.80
2015,05,21,10,53,18.80
2015,05,21,10,54,18.70
2015,05,21,10,55,18.70
2015,05,21,10,56,18.80
2015,05,21,10,57,18.70
2015,05,21,10,58,18.80
2015,05,21,10,59,18.70
2015,05,21,11,00,18.70
2015,05,21,11,01,18.70
2015,05,21,11,02,18.70
2015,05,21,11,03,18.70
2015,05,21,11,04,18.70
2015,05,21,11,05,18.70
2015,05,21,11,06,18.70
2015,05,21,11,07,18.80
2015,05,21,11,08,18.80
2015,05,21,11,09,18.90
2015,05,21,11,10,18.90
2015,05,21,11,11,19.00
2015,05,21,11,12,19.10
2015,05,21,11,13,19.10
2015,05,21,11,14,19.20
2015,05,21,11,15,19.30
2015,05,21,11,16,19.30
2015,05,21,11,17,19.40
2015,05,21,11,18,19.40
2015,05,21,11,19,19.40
2015,05,21,11,20,19.40
2015,05,21,11,21,19.40
2015,05,21,11,22,19.30
2015,05,21,11,23,19.30
2015,05,21,11,24,19.30
2015,05,21,11,25,19.40
2015,05,21,11,26,19.40
2015,05,21,11,27,19.40
2015,05,21,11,28,19.40
2015,05,21,11,29,19.40
2015,05,21,11,30,19.30
2015,05,21,11,31,19.30
2015,05,21,11,32,19.30
2015,05,21,11,33,19.20
2015,05,21,11,34,19.20
2015,05,21,11,35,19.20
2015,05,21,11,36,19.10
2015,05,21,11,37,19.10
2015,05,21,11,38,19.10
2015,05,21,11,39,19.10
2015,05,21,11,40,19.10
2015,05,21,11,41,19.20
2015,05,21,11,42,19.20
2015,05,21,11,43,19.20
2015,05,21,11,44,19.20
2015,05,21,11,45,19.20
2015,05,21,11,46,19.20
2015,05,21,11,47,19.10
2015,05,21,11,48,19.10
2015,05,21,11,49,19.20
2015,05,21,11,50,19.20
2015,05,21,11,51,19.20
2015,05,21,11,52,19.20
2015,05,21,11,53,19.30
2015,05,21,11,54,19.30
2015,05,21,11,55,19.30
2015,05,21,11,56,19.30
2015,05,21,11,57,19.30
2015,05,21,11,58,19.40
2015,05,21,11,59,19.40
2015,05,21,12,00,19.30
2015,05,21,12,01,19.30
2015,05,21,12,02,19.40
2015,05,21,12,03,19.40
2015,05,21,12,04,19.40
2015,05,21,12,05,19.40
2015,05,21,12,06,19.40
2015,05,21,12,07,19.40
2015,05,21,12,08,19.40
2015,05,21,12,09,19.50
2015,05,21,12,10,19.50
2015,05,21,12,11,19.60
2015,05,21,12,12,19.60
2015,05,21,12,13,19.70
2015,05,21,12,14,19.70
2015,05,21,12,15,19.80
2015,05,21,12,16,19.80
2015,05,21,12,17,19.90
2015,05,21,12,18,20.00
2015,05,21,12,19,20.00
2015,05,21,12,20,20.00
2015,05,21,12,21,20.10
2015,05,21,12,22,20.10
2015,05,21,12,23,20.10
2015,05,21,12,24,20.10
2015,05,21,12,25,20.00
2015,05,21,12,26,20.00
2015,05,21,12,27,20.00
2015,05,21,12,28,19.90
2015,05,21,12,29,19.90
2015,05,21,12,30,19.90
2015,05,21,12,31,19.90
2015,05,21,12,32,20.00
2015,05,21,12,33,20.00
2015,05,21,12,34,19.90
2015,05,21,12,35,19.90
2015,05,21,12,36,19.90
2015,05,21,12,37,19.80
2015,05,21,12,38,19.70
2015,05,21,12,39,19.70
2015,05,21,12,40,19.60
2015,05,21,12,41,19.60
2015,05,21,12,42,19.50
2015,05,21,12,43,19.50
2015,05,21,12,44,19.50
2015,05,21,12,45,19.40
2015,05,21,12,46,19.30
2015,05,21,12,47,19.20
2015,05,21,12,48,19.10
2015,05,21,12,49,18.90
2015,05,21,12,50,18.80
2015,05,21,12,51,18.70
2015,05,21,12,52,18.70
2015,05,21,12,53,18.70
2015,05,21,12,54,18.80
2015,05,21,12,55,18.80
2015,05,21,12,56,18.90
2015,05,21,12,57,18.90
2015,05,21,12,58,19.00
2015,05,21,12,59,19.10
2015,05,21,13,00,19.10
2015,05,21,13,01,19.10
2015,05,21,13,02,19.00
2015,05,21,13,03,19.10
2015,05,21,13,04,19.10
2015,05,21,13,05,19.20
2015,05,21,13,06,19.20
2015,05,21,13,07,19.20
2015,05,21,13,08,19.30
2015,05,21,13,09,19.40
2015,05,21,13,10,19.40
2015,05,21,13,11,19.50
2015,05,21,13,12,19.50
2015,05,21,13,13,19.60
2015,05,21,13,14,19.70
2015,05,21,13,15,19.70
2015,05,21,13,16,19.70
2015,05,21,13,17,19.80
2015,05,21,13,18,19.80
2015,05,21,13,19,19.90
2015,05,21,13,20,20.00
2015,05,21,13,21,20.10
2015,05,21,13,22,20.20
2015,05,21,13,23,20.30
2015,05,21,13,24,20.40
2015,05,21,13,25,20.40
2015,05,21,13,26,20.40
2015,05,21,13,27,20.50
2015,05,21,13,28,20.50
2015,05,21,13,29,20.50
2015,05,21,13,30,20.40
2015,05,21,13,31,20.40
2015,05,21,13,32,20.40
2015,05,21,13,33,20.40
2015,05,21,13,34,20.30
2015,05,21,13,35,20.30
2015,05,21,13,36,20.10
2015,05,21,13,37,20.00
2015,05,21,13,38,19.90
2015,05,21,13,39,19.90
2015,05,21,13,40,19.90
2015,05,21,13,41,19.90
2015,05,21,13,42,20.00
2015,05,21,13,43,20.00
2015,05,21,13,44,20.00
2015,05,21,13,45,20.00
2015,05,21,13,46,20.00
2015,05,21,13,47,20.00
2015,05,21,13,48,19.90
2015,05,21,13,49,19.90
2015,05,21,13,50,19.80
2015,05,21,13,51,19.70
2015,05,21,13,52,19.70
2015,05,21,13,53,19.60
2015,05,21,13,54,19.50
2015,05,21,13,55,19.50
2015,05,21,13,56,19.40
2015,05,21,13,57,19.30
2015,05,21,13,58,19.20
2015,05,21,13,59,19.20
2015,05,21,14,00,19.20
2015,05,21,14,01,19.20
2015,05,21,14,02,19.20
2015,05,21,14,03,19.20
2015,05,21,14,04,19.30
2015,05,21,14,05,19.40
2015,05,21,14,06,19.50
2015,05,21,14,07,19.50
2015,05,21,14,08,19.60
2015,05,21,14,09,19.70
2015,05,21,14,10,19.70
2015,05,21,14,11,19.70
2015,05,21,14,12,19.80
2015,05,21,14,13,19.80
2015,05,21,14,14,19.80
2015,05,21,14,15,19.80
2015,05,21,14,16,19.80
2015,05,21,14,17,19.80
2015,05,21,14,18,19.80
2015,05,21,14,19,19.80
2015,05,21,14,20,19.80
2015,05,21,14,21,19.90
2015,05,21,14,22,19.90
2015,05,21,14,23,19.90
2015,05,21,14,24,19.90
2015,05,21,14,25,19.90
2015,05,21,14,26,19.90
2015,05,21,14,27,19.90
2015,05,21,14,28,19.90
2015,05,21,14,29,19.90
2015,05,21,14,30,20.00
2015,05,21,14,31,20.00
2015,05,21,14,32,20.10
2015,05,21,14,33,20.10
2015,05,21,14,34,20.20
2015,05,21,14,35,20.30
2015,05,21,14,36,20.40
2015,05,21,14,37,20.50
2015,05,21,14,38,20.60
2015,05,21,14,39,20.70
2015,05,21,14,40,20.80
2015,05,21,14,41,20.80
2015,05,21,14,42,20.80
2015,05,21,14,43,20.90
2015,05,21,14,44,20.90
2015,05,21,14,45,20.90
2015,05,21,14,46,21.00
2015,05,21,14,47,21.10
2015,05,21,14,48,21.10
2015,05,21,14,49,21.20
2015,05,21,14,50,21.20
2015,05,21,14,51,21.20
2015,05,21,14,52,21.10
2015,05,21,14,53,21.10
2015,05,21,14,54,21.10
2015,05,21,14,55,21.10
2015,05,21,14,56,21.10
2015,05,21,14,57,21.10
2015,05,21,14,58,21.20
2015,05,21,14,59,21.20
2015,05,21,15,00,21.20
2015,05,21,15,01,21.20
2015,05,21,15,02,21.20
2015,05,21,15,03,21.30
2015,05,21,15,04,21.40
2015,05,21,15,05,21.40
2015,05,21,15,06,21.40
2015,05,21,15,07,21.50
2015,05,21,15,08,21.50
2015,05,21,15,09,21.50
2015,05,21,15,10,21.40
2015,05,21,15,11,21.30
2015,05,21,15,12,21.20
2015,05,21,15,13,21.00
2015,05,21,15,14,20.90
2015,05,21,15,15,20.90
2015,05,21,15,16,20.90
2015,05,21,15,17,20.80
2015,05,21,15,18,20.80
2015,05,21,15,19,20.90
2015,05,21,15,20,20.90
2015,05,21,15,21,20.90
2015,05,21,15,22,21.10
2015,05,21,15,23,21.20
2015,05,21,15,24,21.30
2015,05,21,15,25,21.30
2015,05,21,15,26,21.30
2015,05,21,15,27,21.40
2015,05,21,15,28,21.40
2015,05,21,15,29,21.30
2015,05,21,15,30,21.20
2015,05,21,15,31,21.20
2015,05,21,15,32,21.20
2015,05,21,15,33,21.20
2015,05,21,15,34,21.20
2015,05,21,15,35,21.10
2015,05,21,15,36,21.10
2015,05,21,15,37,21.10
2015,05,21,15,38,21.10
2015,05,21,15,39,21.10
2015,05,21,15,40,20.90
2015,05,21,15,41,20.80
2015,05,21,15,42,20.70
2015,05,21,15,43,20.70
2015,05,21,15,44,20.60
2015,05,21,15,45,20.50
2015,05,21,15,46,20.50
2015,05,21,15,47,20.50
2015,05,21,15,48,20.50
2015,05,21,15,49,20.60
2015,05,21,15,50,20.60
2015,05,21,15,51,20.60
2015,05,21,15,52,20.60
2015,05,21,15,53,20.70
2015,05,21,15,54,20.70
2015,05,21,15,55,20.70
2015,05,21,15,56,20.70
2015,05,21,15,57,20.70
2015,05,21,15,58,20.70
2015,05,21,15,59,20.70
2015,05,21,16,00,20.70
2015,05,21,16,01,20.80
2015,05,21,16,02,20.80
2015,05,21,16,03,20.80
2015,05,21,16,04,20.80
2015,05,21,16,05,20.80
2015,05,21,16,06,20.90
2015,05,21,16,07,20.90
2015,05,21,16,08,21.00
2015,05,21,16,09,21.10
2015,05,21,16,10,21.30
2015,05,21,16,11,21.50
2015,05,21,16,12,21.50
2015,05,21,16,13,21.60
2015,05,21,16,14,21.70
2015,05,21,16,15,21.80
2015,05,21,16,16,22.00
2015,05,21,16,17,22.20
2015,05,21,16,18,22.40
2015,05,21,16,19,22.50
2015,05,21,16,20,22.70
2015,05,21,16,21,22.70
2015,05,21,16,22,22.80
2015,05,21,16,23,22.80
2015,05,21,16,24,22.80
2015,05,21,16,25,22.90
2015,05,21,16,26,22.90
2015,05,21,16,27,22.90
2015,05,21,16,28,22.90
2015,05,21,16,29,22.80
2015,05,21,16,30,22.80
2015,05,21,16,31,22.70
2015,05,21,16,32,22.70
2015,05,21,16,33,22.60
2015,05,21,16,34,22.60
2015,05,21,16,35,22.60
2015,05,21,16,36,22.60
2015,05,21,16,37,22.60
2015,05,21,16,38,22.70
2015,05,21,16,39,22.80
2015,05,21,16,40,22.90
2015,05,21,16,41,23.00
2015,05,21,16,42,23.10
2015,05,21,16,43,23.20
2015,05,21,16,44,23.20
2015,05,21,16,45,23.20
2015,05,21,16,46,23.30
2015,05,21,16,47,23.40
2015,05,21,16,48,23.50
2015,05,21,16,49,23.60
2015,05,21,16,50,23.60
2015,05,21,16,51,23.70
2015,05,21,16,52,23.70
2015,05,21,16,53,23.70
2015,05,21,16,54,23.70
2015,05,21,16,55,23.60
2015,05,21,16,56,23.60
2015,05,21,16,57,23.60
2015,05,21,16,58,23.60
2015,05,21,16,59,23.60
2015,05,21,17,00,23.60
2015,05,21,17,01,23.70
2015,05,21,17,02,23.70
2015,05,21,17,03,23.80
2015,05,21,17,04,23.80
2015,05,21,17,05,23.80
2015,05,21,17,06,23.70
2015,05,21,17,07,23.70
2015,05,21,17,08,23.70
2015,05,21,17,09,23.80
2015,05,21,17,10,23.90
2015,05,21,17,11,24.00
2015,05,21,17,12,24.00
2015,05,21,17,13,23.90
2015,05,21,17,14,23.90
2015,05,21,17,15,23.90
2015,05,21,17,16,23.80
2015,05,21,17,17,23.70
2015,05,21,17,18,23.70
2015,05,21,17,19,23.60